User: anonymous   Login
Location: Unspecified
(0.0000°N, 0.0000°E)
Time: 12:51:31
(UTC+00:00)
Language:

Amsat-Oscar-8 - Orbit

View from above orbital plane
View from above orbital plane
View from above satellite
View from above satellite

Ground track
Ground track

The orbit data is extracted from the following two-line orbital elements,

1 10703U 78026B   17229.92863626 -.00000182 +00000-0 -95680-4 0  9992
2 10703 098.8934 190.7227 0006395 155.0834 274.0002 13.99231885012974
Epoch (UTC): 17 August 2017 22:17:14
Eccentricity: 0.0006395
inclination: 98.8934°
perigee height: 892 km
apogee height: 901 km
right ascension of ascending node: 190.7227°
argument of perigee: 155.0834°
revolutions per day: 13.99231885
mean anomaly at epoch: 274.0002°
orbit number at epoch: 1297

The dashed part of the orbit path shows where the satellite is in the earth's shadow,  

DLR